Погода в Тунгозере

Россия / Республика Карелия     65°45′11″N   31°17′52″E
темп.,
°C
ветер,
м/с
пор.,
м/с
влажн.,
%
обл.,
%
осадки,
мм/ч
давл.,
гПа
погр.,
м
14 июня, пн
пн1400:00+9зюз39905 0.1 1005183
03:00+7зюз39881 0.1 1006184
06:00+10зюз397998 0.0 1006277
09:00+15зюз59425 0.0 10061980
12:00+17зюз683665 0.0 10062243
15:00+17зюз694094 0.0 10072123
18:00+14зюз596199 0.0 10081188
21:00+11ю2586100 0.3 1006178
15 июня, вт
вт1500:00+11юв3980100 0.0 1003307
03:00+13ю51271100 0.1 1000679
06:00+11ю61592100 2.3 997805
09:00+11ю71590100 5.2 993958
12:00+14ю81681100 1.1 9901904
15:00+10ююз81591100 2.1 9901462
18:00+9зюз91785100 0.3 9931629
21:00+9з6127698 0.6 9991110
16 июня, ср
ср1600:00+6зсз49815 0.0 1003512
03:00+4зсз129296 0.0 100539
06:00+7сз237283 0.0 1007320
09:00+9ссв005899 0.0 1008389
12:00+14юз244966 0.0 10091402
15:00+14з3564100 1.4 10091256
18:00+12з59757 1.8 1010902
21:00+11з495218 1.9 1011628
17 июня, чт
чт1700:00+7з310675 0.0 1013346
03:00+5зюз28805 0.0 1015167
06:00+9зюз36655 0.0 1016246
09:00+14юз474623 0.0 10161013
12:00+17зюз583833 0.0 10161805
15:00+20зюз583784 0.0 10141945
18:00+16зюз41065100 0.2 10151000
21:00+13юз3978100 0.3 1015381
18 июня, пт
пт1800:00+13юз31181100 0.1 1015356
03:00+11зюз3108799 0.1 1015251
06:00+13зюз3774100 0.0 1015227
09:00+15юз2569100 0.0 1015277
12:00+14юз138998 0.9 1015174
15:00+18с2368100 1.0 1013508
18:00+17ссз3578100 0.2 1011221
21:00+15зюз61288100 2.5 1011897